TIME,DELAY(SENSOR),PRES,OXYGEN,RAWTEMP,T(OPTODE),TCPHASE,FLUOR,BETA(BETA700),BETA(BETA412),BETA(BETA440),CDOM,C(CSC),ED(ED411.90),ED(ED443.80),ED(ED489.40),ED(ED554.70),LU(LU412.20),LU(LU443.80),LU(LU489.40),LU(LU555.00),COMP,TILTX,TILTY,CHECK
1367361269,5804,832.2800292968750000,223.7142028808593800,531.7570190429688000,6.5407710075378420,37.0777587890625000,52,109,97,80,80,11042,2146960768,2147517421,2147295698,2147518902,2147085147,2146920018,2147721828,2147119515,3389,0,8,20834
1367364865,5805,926.7600097656250000,256.9049072265625000,564.4921875000000000,5.5137119293212890,35.9698600769043000,52,109,98,79,80,11033,2146962441,2147520448,2147300800,2147522404,2147085723,2146923062,2147729069,2147120374,275,0,8,24256
1367368465,5805,965.3499755859375000,257.1364135742187500,569.8212280273438000,5.3457012176513670,36.0569190979003900,52,107,99,80,81,11024,2146962706,2147523099,2147298093,2147522057,2147085193,2146924480,2147733632,2147119643,428,0,8,56646
1367372065,5807,1013.2000122070312000,269.7293090820312500,576.5297851562500000,5.1338558197021480,35.5958099365234400,53,118,102,83,79,11009,2146962450,2147520886,2147300891,2147524022,2147086006,2146918509,2147735533,2147118848,452,0,8,54303
1367375665,5806,1008.4199829101562000,267.4447937011719000,577.0042724609375000,5.1188597679138180,35.7082901000976560,52,115,101,83,80,11017,2146964214,2147521152,2147298962,2147521554,2147085120,2146920118,2147734930,2147120877,3491,0,8,36147
1367379265,5807,1006.3200073242188000,269.8575134277344000,577.2810058593750000,5.1101112365722660,35.6039199829101560,52,118,100,81,81,11012,2146963008,2147519789,2147297627,2147525604,2147087689,2146921097,2147734281,2147119817,142,0,8,33514
1367382865,5807,1013.3300170898438000,272.8591003417969000,577.2653808593750000,5.1106028556823730,35.4682388305664060,52,123,101,84,80,11006,2146964662,2147522962,2147299318,2147525613,2147083648,2146916571,2147733787,2147121481,2708,0,8,16517
1367386465,5803,1016.5000000000000000,272.2796936035156000,577.2473144531250000,5.1111769676208500,35.4938011169433600,52,119,101,83,80,11001,2146959552,2147519963,2147301632,2147527396,2147087067,2146920018,2147731008,2147117257,2910,0,8,38153
1367390065,5801,1015.8499755859375000,270.9197998046875000,577.2728881835938000,5.1103649139404300,35.5560188293457000,52,120,102,82,80,11007,2146963273,2147526390,2147299273,2147527661,2147085476,2146916809,2147730258,2147119945,3128,-1,8,7342
1367393665,5806,1018.5599975585938000,268.1288146972656000,576.9376831054688000,5.1209640502929690,35.6763381958007800,51,110,99,80,80,11015,2146965869,2147521444,2147300726,2147525266,2147086829,2146920292,2147729188,2147121069,3192,0,8,40157
1367397265,5809,1023.5499877929688000,276.4305114746094000,577.1431884765625000,5.1144680976867680,35.3076896667480500,52,122,102,83,80,11003,2146964443,2147519021,2147298614,2147522944,2147087424,2146918043,2147734198,2147120850,195,0,8,58142
1367400865,5806,1029.1400146484375000,274.1184997558594000,576.5714111328125000,5.1325421333312990,35.3992500305175800,51,125,102,82,80,10999,2146965504,2147518144,2147301604,2147524096,2147088009,2146919899,2147728000,2147119213,3437,0,8,52815
1367404465,5806,1028.8499755859375000,276.4343872070312500,576.4047851562500000,5.1378059387207030,35.2935905456543000,53,117,101,85,80,10996,2146961828,2147520448,2147301961,2147524653,2147085805,2146914880,2147730112,2147120521,3378,0,8,43259
1367408065,5804,1030.7600097656250000,269.5568847656250000,576.5419921875000000,5.1334710121154785,35.6038513183593750,51,125,102,82,80,10994,2146961892,2147523190,2147305865,2147524708,2147084946,2146916306,2147729920,2147122084,128,0,8,20007
1367411665,5808,1032.0400390625000000,267.9230957031250000,575.8406982421875000,5.1556339263916020,35.6649208068847660,51,123,101,82,80,10986,2146963428,2147524096,2147302930,2147522733,2147088265,2146919707,2147732653,2147118235,359,0,8,581
1367415265,5809,1028.9799804687500000,268.3157958984375000,574.7354125976562000,5.1905589103698730,35.6265106201171900,52,126,101,83,79,10990,2146960009,2147521618,2147301485,2147524324,2147086518,2146918317,2147732580,2147117705,68,0,8,51862
1367418865,5807,1028.8299560546875000,269.9241027832031000,576.0150146484375000,5.1501269340515140,35.5777015686035160,52,124,102,84,81,10990,2146964937,2147519222,2147300992,2147526683,2147084507,2146919360,2147731693,2147120987,3205,-1,8,5189
1367422465,5805,1029.5400390625000000,268.2109985351562500,572.9002075195312000,5.2485198974609375,35.5974006652832000,51,131,98,81,81,10997,2146963675,2147524178,2147300169,2147519606,2147084077,2146923702,2147730368,2147121334,2905,0,8,11648
1367426065,5807,1034.3100585937500000,270.7059020996094000,575.0679931640625000,5.1800498962402340,35.5247383117675800,52,123,102,83,80,10978,2146963812,2147521014,2147299894,2147524160,2147088091,2146919881,2147729261,2147118235,622,-1,8,9821
1367429665,5806,1031.3299560546875000,265.5280151367187500,576.0944213867188000,5.1476168632507320,35.7798805236816400,52,120,103,82,80,10982,2146962304,2147516690,2147299062,2147524434,2147085348,2146918802,2147734884,2147121280,3177,-1,8,15646
1367433265,5807,1033.1800537109375000,268.9088134765625000,576.3413085937500000,5.1398138999938965,35.6294212341308600,52,116,100,82,81,10983,2146967058,2147517275,2147299721,2147526198,2147086016,2146914889,2147732160,2147120594,3321,-1,8,41424
1367436865,5807,1020.1199951171875000,269.8612060546875000,572.8054809570312000,5.2515110969543460,35.5210304260253900,52,120,106,81,81,10987,2146964361,2147519259,2147298386,2147525083,2147086006,2146914139,2147733037,2147119808,288,0,8,46622
1367440465,5807,1020.0499877929688000,269.3453063964844000,572.6179809570312000,5.2574291229248050,35.5411796569824200,52,116,99,81,81,10985,2146961353,2147519625,2147301842,2147524406,2147087661,2146923712,2147731254,2147117540,65,0,8,20401
1367444065,5806,1021.9400024414062000,267.9755859375000000,572.1679077148438000,5.2716407775878910,35.5947608947753900,51,108,99,81,80,10986,2146964050,2147520804,2147299885,2147523638,2147085312,2146917888,2147732251,2147118070,3481,-1,8,60756
1367447665,5807,1027.3199462890625000,265.9137878417969000,569.6245117187500000,5.3519101142883300,35.6428413391113300,52,115,98,81,80,10997,2146965120,2147520109,2147298660,2147522724,2147087890,2146911597,2147728539,2147119899,345,0,8,59986
1367451265,5806,1020.7100219726562000,261.0750122070312500,570.3184204101562000,5.3300170898437500,35.8802909851074200,52,110,97,80,80,10994,2146963611,2147519021,2147303680,2147524224,2147083026,2146919844,2147727076,2147120109,293,0,8,22604
1367454865,5809,1025.2900390625000000,263.9294128417969000,569.6541137695312000,5.3509769439697270,35.7349891662597660,52,112,99,80,80,10994,2146959241,2147519076,2147299894,2147521152,2147085494,2146915346,2147728457,2147119488,203,0,8,31057
1367458465,5804,1024.2099609375000000,259.0072021484375000,569.9232177734375000,5.3424839973449710,35.9703788757324200,52,106,98,81,80,10989,2146959789,2147519305,2147298212,2147524406,2147084041,2146918765,2147728064,2147120978,571,0,8,4008
1367462065,5808,1020.4099731445312000,260.6736145019531000,568.8732299804688000,5.3756079673767090,35.8722915649414060,52,110,99,79,81,10992,2146962240,2147521682,2147301787,2147524105,2147086509,2146917138,2147728859,2147121261,533,0,8,20767
1367465665,5805,1020.0800170898438000,265.2976074218750000,570.7921142578125000,5.3150649070739750,35.6923713684082000,52,110,98,80,80,10989,2146961801,2147518738,2147300891,2147524571,2147085842,2146919076,2147736201,2147120548,3102,0,8,50550
1367469265,5805,1026.1800537109375000,267.3521118164062500,570.1019287109375000,5.3368449211120605,35.5850791931152340,52,107,98,80,80,10987,2146961801,2147519259,2147302326,2147525760,2147084416,2146916635,2147733321,2147119981,3224,0,8,58175
1367472865,5804,1027.1300048828125000,265.4836120605469000,567.9014282226562000,5.4062581062316895,35.6305198669433600,51,104,98,78,79,10989,2146963556,2147520548,2147298377,2147524233,2147087168,2146917632,2147730276,2147119872,3288,0,8,10589
1367476465,5806,1028.6899414062500000,264.2060852050781000,568.5891723632812000,5.3845648765563965,35.7023696899414060,53,107,99,80,80,10989,2146968064,2147522048,2147301366,2147523611,2147086262,2146913005,2147731236,2147119753,3305,0,8,43921
1367480065,5806,1032.6199951171875000,265.9436035156250000,568.7791137695312000,5.3785781860351560,35.6256904602050800,52,109,98,80,81,10987,2146964013,2147517696,2147299209,2147527323,2147086363,2146924434,2147730925,2147123245,2989,0,8,719
1367483665,5807,1026.5600585937500000,265.3225097656250000,569.3472290039062000,5.3606548309326170,35.6643905639648440,52,107,98,80,79,10986,2146963556,2147521106,2147300004,2147524553,2147085613,2146915602,2147729728,2147121161,68,0,8,4973
1367487265,5806,1027.0500488281250000,266.7506103515625000,569.1364746093750000,5.3673019409179690,35.5952796936035160,52,107,97,80,79,10788,2146962523,2147522514,2147300114,2147525083,2147087716,2146915748,2147730816,2147118902,3383,0,8,61218
1367490865,5807,1027.3699951171875000,265.8529052734375000,569.0883789062500000,5.3688178062438965,35.6354484558105500,52,106,99,80,80,10781,2146965412,2147521280,2147303122,2147522240,2147086902,2146918418,2147732452,2147120384,51,-1,8,31887
1367494465,5804,1029.4499511718750000,265.0838928222656000,569.6110229492188000,5.3523349761962890,35.6804618835449200,51,106,98,80,80,10786,2146967469,2147520640,2147301028,2147521572,2147082916,2146918134,2147733796,2147119643,1060,-1,8,26826
1367498065,5804,1027.8199462890625000,265.2589111328125000,571.3341064453125000,5.2979598045349120,35.7043495178222660,52,109,100,80,80,10777,2146966107,2147518235,2147301120,2147523638,2147087369,2146919350,2147733412,2147122057,3541,-1,8,63218
1367501665,5805,1033.1300048828125000,266.4722900390625000,569.5275268554688000,5.3549690246582030,35.6152992248535160,51,111,99,81,81,10779,2146960118,2147520256,2147301092,2147520237,2147090102,2146921691,2147733888,2147123922,1083,0,8,36815
1367505265,5803,1025.5899658203125000,264.3216857910156000,571.5056152343750000,5.2925491333007810,35.7506904602050800,52,112,99,81,80,10769,2146960758,2147516342,2147302720,2147523090,2147085686,2146918601,2147730203,2147119094,3054,0,8,6163
1367505355,5806,1061.0000000000000000,264.0848083496094000,571.4650878906250000,5.2938270568847660,35.7611694335937500,52,112,99,78,81,10965,2146963986,2147519661,2147301220,2147524955,2147083922,2146916123,2147730916,2147119972,2982,-1,8,16754
